Pescara International Airport

Jump to: basic info | weather | frequencies | runways | comments

Related pages: nearby airports | nearby navaids | notams | map

Basic information (top)

Codes: PSR LIBP
Location: lon 42.431702, lat 14.181100, elev 48 ft / 15 m msl
Status: medium_airport
Scheduled airline service: yes
Links: Wikipedia Mobile

Weather (top)

Current conditions (rec'd 2015/01/30 06:50Z):

LIBP 300650Z 22019G31KT 9999 FEW030 BKN070 12/04 Q0979

Airport forecast (rec'd 2015/01/30 06:21Z):

TAF LIBP 300500Z 3006/3106 22015G25KT 9999 SCT025 BKN070 
      TEMPO 3006/3012 RA

Frequencies (top)

Verify before use: may be inaccurate or out of date.

APP: 120.05 MHz (APP)
TWR: 118.45 MHz (TWR)

Runways (top)

04/22: 7,933 x 148 ft (2,418 x 45 m) — paved — lighted — threshold 04 displaced 344 ft (105 m) — threshold 22 displaced 617 ft (188 m)

Latest comments (top)

No comments yet for Pescara International Airport

More... (top)

See also NOTAMs and nearby airports and navaids, or visit the Pescara International Airport page at the main OurAirports website..